Weather History for Ocala, FL

Change the Weather History Date:

Sunday, December 1, 2013

  Actual Average Record
Temperature  
Mean Temperature 64 °F -  
Max Temperature 73 °F 70 °F 80 °F (1998)
Min Temperature 55 °F 46 °F 33 °F (1999)
Degree Days  
Heating Degree Days 1    
Growing Degree Days 14 (Base 50)    
Moisture  
Dew Point 52 °F    
Average Humidity 79    
Maximum Humidity 100    
Minimum Humidity 53    
Precipitation  
Precipitation 0.00 in - - ()
Sea Level Pressure  
Sea Level Pressure 30.14 in    
Wind  
Wind Speed 5 mph (NNE)    
Max Wind Speed 8 mph    
Max Gust Speed -    
Visibility 5 miles    
Events Fog    
Averages and records for this station are not official NWS values.
T = Trace of Precipitation, MM = Missing Value Source: NWS Daily Summary

Daily Weather History Graph

Daily Weather History Graph

Search for Another Location

Airport:

Trip Planner

Search our weather history database for the weather conditions in past years. The results will help you decide how hot, cold, wet, or windy it might be!

Date:

Astronomy

Dec. 01, 2013 Rise Set
Actual Time 7:05 AM EST 5:30 PM EST
Civil Twilight 6:39 AM EST 5:56 PM EST
Nautical Twilight 6:10 AM EST 6:25 PM EST
Astronomical Twilight 5:41 AM EST 6:54 PM EST
Moon 5:28 AM EST (12/1) 4:34 PM EST (12/1)
Length of Visible Light 11h 16m
Length of Day
10h 24m
Waning Crescent, 2% of the Moon is Illuminated
Dec 1
Waning Crescent
Dec 2
New
Dec 9
First Quarter
Dec 17
Full
Dec 25
Last Quarter

Hourly Weather History & Observations

Time (EST) Temp. Dew Point Humidity Pressure Visibility Wind Dir Wind Speed Gust Speed Precip Events Conditions
12:15 AM 55.4 °F 50.0 °F 82% 30.23 in 2.0 mi North 5.8 mph - N/A   Overcast
12:35 AM 55.4 °F 50.0 °F 82% 30.22 in 2.0 mi North 5.8 mph - N/A   Overcast
12:55 AM 55.4 °F 50.0 °F 82% 30.21 in 1.8 mi NNE 4.6 mph - N/A   Overcast
1:15 AM 55.4 °F 50.0 °F 82% 30.20 in 1.2 mi North 4.6 mph - N/A   Overcast
1:35 AM 57.2 °F 50.0 °F 77% 30.20 in 1.2 mi North 4.6 mph - N/A   Overcast
1:55 AM 57.2 °F 50.0 °F 77% 30.21 in 1.0 mi North 8.1 mph - N/A   Overcast
2:15 AM 57.2 °F 50.0 °F 77% 30.20 in 1.2 mi NNE 6.9 mph - N/A   Overcast
2:35 AM 57.2 °F 50.0 °F 77% 30.19 in 1.0 mi NNE 5.8 mph - N/A   Overcast
2:55 AM 57.2 °F 50.0 °F 77% 30.19 in 1.0 mi NE 4.6 mph - N/A   Overcast
3:15 AM 57.2 °F 51.8 °F 82% 30.19 in 1.0 mi NNE 3.5 mph - N/A   Overcast
3:35 AM 57.2 °F 51.8 °F 82% 30.19 in 1.0 mi NNE 6.9 mph - N/A   Overcast
3:55 AM 57.2 °F 51.8 °F 82% 30.19 in 1.2 mi NNE 5.8 mph - N/A   Overcast
4:15 AM 57.2 °F 51.8 °F 82% 30.19 in 1.5 mi NNE 5.8 mph - N/A   Overcast
4:35 AM 57.2 °F 50.0 °F 77% 30.18 in 1.5 mi NNE 5.8 mph - N/A   Overcast
4:55 AM 57.2 °F 50.0 °F 77% 30.18 in 1.8 mi NNE 6.9 mph - N/A   Overcast
5:15 AM 57.2 °F 50.0 °F 77% 30.19 in 1.5 mi North 8.1 mph - N/A   Overcast
5:35 AM 57.2 °F 50.0 °F 77% 30.19 in 1.0 mi North 5.8 mph - N/A   Overcast
5:55 AM 57.2 °F 50.0 °F 77% 30.19 in 1.0 mi NNE 6.9 mph - N/A   Overcast
6:15 AM 57.2 °F 50.0 °F 77% 30.19 in 1.2 mi NNE 5.8 mph - N/A   Overcast
6:35 AM 57.2 °F 50.0 °F 77% 30.19 in 1.0 mi NNE 6.9 mph - N/A   Overcast
6:50 AM 57.2 °F 57.2 °F 100% 30.19 in 0.2 mi North 6.9 mph - N/A Fog Fog
7:50 AM 57.2 °F 57.2 °F 100% 30.20 in 0.2 mi NNE 6.9 mph - N/A Fog Fog
8:50 AM 57.2 °F 57.2 °F 100% 30.21 in 0.2 mi North 5.8 mph - N/A Fog Fog
9:50 AM 57.2 °F 57.2 °F 100% 30.23 in 0.5 mi North 4.6 mph - N/A Fog Fog
10:50 AM 59.0 °F 57.2 °F 94% 30.21 in 1.0 mi North 4.6 mph - N/A   Overcast
11:50 AM 62.6 °F 57.2 °F 82% 30.17 in 3.0 mi NNW 4.6 mph - N/A   Overcast
12:25 PM 64.4 °F 53.6 °F 68% 30.15 in 5.0 mi NNW 3.5 mph - N/A   Scattered Clouds
12:50 PM 66.2 °F 55.4 °F 68% 30.14 in 10.0 mi NNE 4.6 mph - N/A   Partly Cloudy
1:50 PM 71.6 °F 57.2 °F 60% 30.11 in 10.0 mi North 6.9 mph - N/A   Partly Cloudy
2:50 PM 73.4 °F 57.2 °F 57% 30.08 in 10.0 mi North 5.8 mph - N/A   Scattered Clouds
3:50 PM 71.6 °F 55.4 °F 57% 30.07 in 10.0 mi NNE 6.9 mph - N/A   Scattered Clouds
4:50 PM 71.6 °F 53.6 °F 53% 30.07 in 10.0 mi NE 3.5 mph - N/A   Partly Cloudy
5:50 PM 64.4 °F 53.6 °F 68% 30.06 in 10.0 mi Calm Calm - N/A   Clear
6:50 PM 60.8 °F 53.6 °F 77% 30.06 in 10.0 mi Calm Calm - N/A   Clear
7:55 PM 60.8 °F 51.8 °F 72% 30.06 in 10.0 mi Calm Calm - N/A   Clear
8:15 PM 59.0 °F 51.8 °F 77% 30.06 in 10.0 mi Calm Calm - N/A   Clear
8:35 PM 59.0 °F 51.8 °F 77% 30.06 in 10.0 mi Calm Calm - N/A   Clear
8:55 PM 57.2 °F 51.8 °F 82% 30.05 in 10.0 mi Calm Calm - N/A   Clear
9:15 PM 57.2 °F 51.8 °F 82% 30.05 in 10.0 mi Calm Calm - N/A   Clear
9:35 PM 57.2 °F 50.0 °F 77% 30.05 in 10.0 mi Calm Calm - N/A   Clear
9:55 PM 57.2 °F 50.0 °F 77% 30.04 in 8.0 mi Calm Calm - N/A   Clear
10:15 PM 57.2 °F 50.0 °F 77% 30.03 in 9.0 mi Calm Calm - N/A   Clear
10:35 PM 55.4 °F 50.0 °F 82% 30.02 in 7.0 mi Calm Calm - N/A   Clear
10:55 PM 55.4 °F 50.0 °F 82% 30.02 in 7.0 mi Calm Calm - N/A   Clear
11:15 PM 55.4 °F 50.0 °F 82% 30.02 in 5.0 mi Calm Calm - N/A   Clear
11:35 PM 55.4 °F 50.0 °F 82% 30.01 in 5.0 mi Calm Calm - N/A   Clear
11:55 PM 55.4 °F 48.2 °F 77% 30.01 in 10.0 mi Calm Calm - N/A   Clear